• In Russia
  • List of Countries
  • For 7 days
  • Water Temperature
  • Weather Map
  • Weather Widgets
  • user-avatar
    Login

    Hourly Weather Kalat

    Today, 19 January, Sunday

    Time Temperature Precipitation Wind Pressure Humidity
    00:00 -22°C° 0 mm 1 mps 461 mmHg 52%
    01:00 -22°C° 0 mm 1 mps 461 mmHg 45%
    02:00 -22°C° 0 mm 1 mps 460 mmHg 38%
    03:00 -22°C° 0 mm 1 mps 460 mmHg 32%
    04:00 -22°C° 0 mm 1 mps 460 mmHg 25%
    05:00 -22°C° 0 mm 1 mps 460 mmHg 19%
    06:00 -21°C° 0 mm 1 mps 461 mmHg 17%
    07:00 -21°C° 0 mm 1 mps 461 mmHg 15%
    08:00 -20°C° 0 mm 1 mps 462 mmHg 13%
    09:00 -17°C° 0 mm 1 mps 464 mmHg 22%
    10:00 -16°C° 0 mm 2 mps 466 mmHg 30%
    11:00 -13°C° 0 mm 2 mps 468 mmHg 38%
    12:00 -12°C° 0 mm 2 mps 469 mmHg 42%
    13:00 -10°C° 0 mm 2 mps 469 mmHg 46%
    14:00 -9°C° 0 mm 2 mps 469 mmHg 51%
    15:00 -10°C° 0.1 mm 2 mps 469 mmHg 62%
    16:00 -12°C° 0.1 mm 2 mps 468 mmHg 74%
    17:00 -13°C° 0.1 mm 2 mps 468 mmHg 85%
    18:00 -15°C° 0.1 mm 3 mps 467 mmHg 87%
    19:00 -16°C° 0.1 mm 3 mps 467 mmHg 89%
    20:00 -17°C° 0.1 mm 3 mps 467 mmHg 92%
    21:00 -17°C° 0.2 mm 3 mps 466 mmHg 92%
    22:00 -17°C° 0.2 mm 3 mps 466 mmHg 92%
    23:00 -18°C° 0.2 mm 3 mps 466 mmHg 93%

    Tomorrow, 20 January, Monday

    Time Temperature Precipitation Wind Pressure Humidity
    00:00 -19°C° 0 mm 3 mps 465 mmHg 91%
    01:00 -21°C° 0 mm 3 mps 464 mmHg 90%
    02:00 -22°C° 0 mm 3 mps 463 mmHg 89%
    03:00 -19°C° 0.1 mm 2 mps 463 mmHg 90%
    04:00 -19°C° 0.1 mm 2 mps 463 mmHg 91%
    05:00 -19°C° 0.1 mm 2 mps 463 mmHg 92%
    06:00 -19°C° 0 mm 2 mps 463 mmHg 91%
    07:00 -19°C° 0 mm 2 mps 463 mmHg 91%
    08:00 -19°C° 0 mm 2 mps 463 mmHg 90%
    09:00 -18°C° 0 mm 2 mps 464 mmHg 87%
    10:00 -16°C° 0 mm 2 mps 465 mmHg 84%
    11:00 -14°C° 0 mm 2 mps 466 mmHg 81%
    12:00 -14°C° 0 mm 2 mps 466 mmHg 80%
    13:00 -13°C° 0 mm 2 mps 466 mmHg 79%
    14:00 -12°C° 0 mm 2 mps 466 mmHg 78%
    15:00 -13°C° 0.1 mm 2 mps 466 mmHg 80%
    16:00 -15°C° 0.1 mm 3 mps 465 mmHg 82%
    17:00 -16°C° 0.1 mm 3 mps 464 mmHg 85%
    18:00 -18°C° 0 mm 3 mps 464 mmHg 85%
    19:00 -19°C° 0 mm 3 mps 463 mmHg 85%
    20:00 -21°C° 0 mm 3 mps 462 mmHg 85%
    21:00 -21°C° 0 mm 3 mps 462 mmHg 85%
    22:00 -22°C° 0 mm 3 mps 463 mmHg 85%
    23:00 -22°C° 0 mm 3 mps 463 mmHg 85%

    Day after tomorrow, 21 January, Tuesday

    Time Temperature Precipitation Wind Pressure Humidity
    00:00 -22°C° 0 mm 3 mps 463 mmHg 86%
    01:00 -19°C° 0 mm 2 mps 462 mmHg 86%
    02:00 -19°C° 0 mm 2 mps 462 mmHg 86%
    03:00 -19°C° 0 mm 2 mps 462 mmHg 86%
    04:00 -20°C° 0 mm 2 mps 462 mmHg 86%
    05:00 -20°C° 0 mm 2 mps 462 mmHg 86%
    06:00 -19°C° 0 mm 2 mps 462 mmHg 86%
    07:00 -19°C° 0 mm 2 mps 463 mmHg 86%
    08:00 -19°C° 0 mm 2 mps 463 mmHg 86%
    09:00 -18°C° 0 mm 3 mps 464 mmHg 83%
    10:00 -17°C° 0 mm 3 mps 466 mmHg 80%
    11:00 -15°C° 0 mm 3 mps 467 mmHg 76%
    12:00 -14°C° 0.1 mm 3 mps 467 mmHg 73%
    13:00 -14°C° 0.1 mm 3 mps 467 mmHg 69%
    14:00 -13°C° 0.1 mm 3 mps 467 mmHg 66%
    15:00 -15°C° 0.1 mm 3 mps 466 mmHg 72%
    16:00 -16°C° 0.1 mm 3 mps 465 mmHg 78%
    17:00 -18°C° 0.1 mm 3 mps 464 mmHg 83%
    18:00 -19°C° 0 mm 3 mps 463 mmHg 84%
    19:00 -21°C° 0 mm 3 mps 463 mmHg 84%
    20:00 -23°C° 0 mm 3 mps 462 mmHg 85%
    21:00 -23°C° 0 mm 3 mps 462 mmHg 85%
    22:00 -24°C° 0 mm 3 mps 462 mmHg 85%
    23:00 -25°C° 0 mm 3 mps 462 mmHg 85%

    22 January, Wednesday

    Time Temperature Precipitation Wind Pressure Humidity
    00:00 -25°C° 0 mm 3 mps 461 mmHg 85%
    01:00 -25°C° 0 mm 3 mps 461 mmHg 85%
    02:00 -26°C° 0 mm 3 mps 461 mmHg 85%
    03:00 -26°C° 0 mm 3 mps 461 mmHg 85%
    04:00 -26°C° 0 mm 3 mps 461 mmHg 85%
    05:00 -26°C° 0 mm 3 mps 461 mmHg 85%
    06:00 -26°C° 0 mm 3 mps 462 mmHg 84%
    07:00 -26°C° 0 mm 3 mps 462 mmHg 84%
    08:00 -26°C° 0 mm 3 mps 462 mmHg 83%
    09:00 -21°C° 0 mm 2 mps 464 mmHg 78%
    10:00 -19°C° 0 mm 2 mps 467 mmHg 73%
    11:00 -16°C° 0 mm 2 mps 469 mmHg 68%
    12:00 -14°C° 0 mm 1 mps 469 mmHg 65%
    13:00 -13°C° 0 mm 1 mps 469 mmHg 62%
    14:00 -12°C° 0 mm 1 mps 469 mmHg 59%
    15:00 -14°C° 0 mm 1 mps 467 mmHg 66%
    16:00 -16°C° 0 mm 1 mps 465 mmHg 74%
    17:00 -18°C° 0 mm 0 mps 464 mmHg 81%
    18:00 -20°C° 0 mm 1 mps 463 mmHg 79%
    19:00 -21°C° 0 mm 1 mps 463 mmHg 77%
    20:00 -22°C° 0 mm 1 mps 462 mmHg 75%
    21:00 -22°C° 0 mm 1 mps 462 mmHg 69%
    22:00 -23°C° 0 mm 1 mps 462 mmHg 62%
    23:00 -23°C° 0 mm 1 mps 462 mmHg 56%

    23 January, Thursday

    Time Temperature Precipitation Wind Pressure Humidity
    00:00 -23°C° 0 mm 1 mps 461 mmHg 49%
    01:00 -23°C° 0 mm 1 mps 461 mmHg 42%
    02:00 -24°C° 0 mm 1 mps 461 mmHg 35%
    03:00 -24°C° 0 mm 1 mps 461 mmHg 33%
    04:00 -24°C° 0 mm 1 mps 460 mmHg 31%
    05:00 -24°C° 0 mm 1 mps 460 mmHg 29%
    06:00 -24°C° 0 mm 1 mps 460 mmHg 29%
    07:00 -23°C° 0 mm 1 mps 461 mmHg 29%
    08:00 -23°C° 0 mm 1 mps 461 mmHg 29%
    09:00 -20°C° 0 mm 1 mps 463 mmHg 33%
    10:00 -17°C° 0 mm 1 mps 465 mmHg 37%
    11:00 -14°C° 0 mm 1 mps 467 mmHg 41%
    12:00 -13°C° 0 mm 1 mps 467 mmHg 43%
    13:00 -12°C° 0 mm 1 mps 467 mmHg 45%
    14:00 -11°C° 0 mm 1 mps 467 mmHg 46%
    15:00 -13°C° 0 mm 1 mps 466 mmHg 50%
    16:00 -15°C° 0 mm 1 mps 465 mmHg 55%
    17:00 -16°C° 0 mm 1 mps 463 mmHg 59%
    18:00 -16°C° 0 mm 1 mps 464 mmHg 56%
    19:00 -16°C° 0 mm 1 mps 464 mmHg 53%
    20:00 -18°C° 0 mm 2 mps 464 mmHg 49%
    21:00 -18°C° 0 mm 2 mps 464 mmHg 54%
    22:00 -19°C° 0 mm 2 mps 464 mmHg 59%
    23:00 -19°C° 0 mm 2 mps 464 mmHg 65%

    24 January, Friday

    Time Temperature Precipitation Wind Pressure Humidity
    00:00 -19°C° 0 mm 2 mps 464 mmHg 65%
    01:00 -19°C° 0 mm 2 mps 463 mmHg 65%
    02:00 -19°C° 0 mm 2 mps 463 mmHg 65%
    03:00 -19°C° 0 mm 2 mps 463 mmHg 64%
    04:00 -18°C° 0 mm 2 mps 463 mmHg 63%
    05:00 -18°C° 0 mm 2 mps 463 mmHg 62%
    06:00 -18°C° 0 mm 3 mps 463 mmHg 61%
    07:00 -18°C° 0 mm 3 mps 464 mmHg 59%
    08:00 -18°C° 0 mm 4 mps 465 mmHg 58%
    09:00 -16°C° 0.2 mm 4 mps 466 mmHg 65%
    10:00 -14°C° 0.2 mm 4 mps 467 mmHg 73%
    11:00 -12°C° 0.2 mm 5 mps 469 mmHg 81%
    12:00 -10°C° 0.3 mm 4 mps 469 mmHg 82%
    13:00 -10°C° 0.3 mm 4 mps 469 mmHg 83%
    14:00 -10°C° 0.3 mm 4 mps 468 mmHg 85%
    15:00 -9°C° 0.3 mm 3 mps 468 mmHg 87%
    16:00 -10°C° 0.3 mm 3 mps 468 mmHg 90%
    17:00 -10°C° 0.3 mm 2 mps 468 mmHg 92%
    18:00 -10°C° 0.3 mm 2 mps 468 mmHg 92%
    19:00 -13°C° 0.3 mm 3 mps 467 mmHg 93%
    20:00 -14°C° 0.3 mm 3 mps 467 mmHg 93%
    21:00 -15°C° 0.2 mm 3 mps 467 mmHg 93%
    22:00 -14°C° 0.2 mm 2 mps 466 mmHg 94%
    23:00 -15°C° 0.2 mm 2 mps 466 mmHg 94%
    Show more